Cloud_Cover
0 0 3 4 5 2 47 6 92 4 5 1 9 100 100 89 98 100 100 100 100 100 100 100 100 91 99 76 65 13 1 9 94 100 100 100 100 100 100 100 97 5 85 100 44 5 5
2 2 5 6 6 8 8 4 5 5 6 5 5 12 100 30 98 100 97 72 100 100 100 100 100 100 100 90 83 77 48 5 25 51 100 100 100 100 100 100 100 40 5 37 100 96 5
5 29 68 5 5 16 9 3 5 3 5 5 5 5 8 5 57 96 91 100 100 100 100 100 100 100 100 100 100 94 93 47 28 39 100 87 98 100 100 100 100 57 12 5 55 43 87
100 71 100 100 13 9 27 10 5 18 5 3 4 5 5 24 94 87 98 100 100 100 100 100 100 100 100 100 100 100 100 82 56 26 69 61 99 100 100 100 100 78 5 5 5 5 73
98 95 100 94 100 69 80 90 12 100 49 16 2 5 5 5 5 77 61 100 100 100 100 100 100 100 100 100 100 100 48 57 78 99 72 78 92 93 100 100 100 100 95 23 7 10 40
100 100 98 100 90 29 71 85 100 48 18 26 46 0 4 6 22 19 42 100 100 100 100 93 100 100 100 100 100 100 100 89 63 100 100 100 99 100 76 100 100 100 100 100 100 100 90
100 16 70 70 100 60 44 100 100 100 33 87 78 1 40 100 99 89 41 100 100 100 100 76 100 100 100 100 100 100 100 64 100 76 100 100 100 100 58 27 84 100 100 100 100 100 98
88 48 53 100 97 64 96 92 36 75 91 31 5 6 100 100 100 91 39 100 100 100 100 100 100 100 100 100 100 32 15 50 100 100 100 96 100 100 100 100 88 78 58 31 27 52 7
100 100 100 100 54 56 16 20 94 32 36 8 49 100 33 92 91 71 40 100 100 100 100 100 100 100 100 97 93 92 80 89 98 100 100 100 100 100 100 100 100 100 42 10 5 5 5
100 100 47 8 61 81 70 14 74 42 95 99 98 100 100 94 14 65 60 100 100 100 99 100 100 100 100 100 94 36 30 51 100 100 100 100 100 100 100 100 100 100 99 52 54 49 5
100 67 88 92 72 93 92 63 100 96 96 91 100 100 100 99 100 92 62 100 100 100 100 84 100 96 100 96 95 98 100 99 100 100 100 100 100 100 100 100 100 100 98 86 74 83 82
90 96 58 62 58 46 100 55 75 92 10 78 95 97 100 100 98 75 81 100 100 100 100 99 100 100 100 100 100 100 100 100 100 100 100 100 100 100 100 100 100 100 99 100 100 92 58
100 97 72 31 43 64 99 84 18 5 42 85 100 79 59 99 50 81 100 100 100 100 70 100 100 100 100 100 100 100 100 100 100 100 100 100 100 100 100 100 100 100 100 100 92 99 5
98 87 50 56 49 100 96 92 10 23 85 100 67 26 82 99 35 100 100 100 100 100 71 100 100 100 100 100 100 100 100 100 100 100 100 100 100 100 100 100 100 100 100 100 42 5 4
22 94 70 42 99 36 36 5 5 100 76 8 80 82 97 100 39 72 100 100 100 63 100 100 100 100 100 100 100 100 100 100 95 100 20 62 60 91 91 90 97 96 93 14 100 5 48
100 84 69 69 95 24 43 10 64 56 100 100 100 87 98 83 84 100 100 100 100 87 100 100 100 100 100 100 100 100 100 69 100 31 43 90 66 8 66 68 79 59 69 91 99 83 92
100 97 100 69 47 38 28 5 5 100 99 100 100 100 100 98 99 100 100 100 100 96 100 100 100 100 100 100 100 100 82 52 59 67 100 99 78 98 72 69 27 98 97 70 66 94 99
100 100 100 87 37 5 73 5 18 93 100 100 100 100 100 68 100 100 100 100 93 100 100 100 100 100 100 94 100 81 63 62 47 97 80 98 100 68 18 68 21 44 68 99 100 58 100
84 95 84 49 5 83 17 5 77 100 100 100 100 100 86 100 100 100 100 99 100 100 100 100 100 100 88 100 78 78 69 31 39 96 100 100 84 63 36 39 83 58 27 94 100 100 100
52 98 23 8 5 5 5 3 78 100 100 100 100 100 100 100 100 100 100 100 100 100 100 100 100 93 100 100 43 61 56 57 86 100 100 88 95 34 88 36 98 100 100 100 100 100 100
100 100 5 5 5 5 5 5 8 90 100 99 100 100 100 56 80 87 100 100 100 95 100 100 100 100 100 100 62 54 99 100 100 100 58 98 81 83 91 44 100 100 100 100 100 100 100
20 5 5 5 5 5 5 5 5 80 79 100 100 100 100 100 100 96 98 100 100 100 100 100 100 100 99 88 93 100 100 99 78 92 68 95 84 93 100 98 88 100 100 100 100 100 100
75 6 5 5 5 5 5 5 5 5 14 100 100 100 100 100 100 100 88 99 100 100 100 100 100 100 100 100 100 100 100 100 100 95 100 100 100 100 100 68 42 77 100 100 100 100 100
5 5 5 5 5 5 5 5 5 5 65 100 100 100 100 100 100 87 6 77 100 100 100 100 100 100 100 100 100 100 100 100 100 100 100 100 100 100 99 100 98 100 100 100 100 100 100
5 5 5 5 5 5 5 17 18 4 15 100 100 100 100 96 100 59 5 6 100 100 100 100 100 100 100 100 100 99 100 100 100 100 100 100 100 100 100 100 86 100 100 100 100 100 100
20 5 5 85 82 5 5 7 5 1 6 99 100 100 100 100 44 34 5 5 72 100 100 100 100 100 100 100 100 99 100 100 100 100 100 100 100 100 100 100 100 100 100 100 100 100 100
96 5 8 26 41 5 5 5 5 5 5 49 100 100 98 100 88 43 37 16 6 82 100 100 100 100 100 100 100 98 100 100 97 100 76 100 100 100 100 100 57 77 97 100 100 100 100
90 13 5 22 5 5 5 5 5 11 5 17 97 100 100 100 83 100 76 28 5 47 97 100 100 100 100 100 84 100 100 100 65 100 79 68 95 100 100 100 100 100 100 20 100 100 100
71 83 5 5 5 5 5 5 5 5 5 5 81 100 100 100 97 95 100 20 34 12 94 100 100 100 100 100 99 100 100 98 100 100 52 38 82 100 78 52 100 95 99 94 100 99 99